Time,TemperatureF,DewpointF,PressureIn,WindDirection,WindDirectionDegrees,WindSpeedMPH,WindSpeedGustMPH,Humidity,HourlyPrecipIn,Conditions,Clouds,dailyrainin,SoftwareType,DateUTC
2013-09-10 00:01:00,68.3,67.1,29.82,SSE,152,0.0,1.0,96,0.00,,,0.07,WUHU216DAVISVP2,2013-09-10 04:01:00,
2013-09-10 00:06:00,68.3,67.1,29.82,SSE,152,0.0,1.0,96,0.00,,,0.00,WUHU216DAVISVP2,2013-09-10 04:06:00,
2013-09-10 00:11:00,68.2,67.0,29.82,SSE,165,1.0,1.0,96,0.00,,,0.00,WUHU216DAVISVP2,2013-09-10 04:11:00,
2013-09-10 00:16:00,68.2,67.0,29.82,SSW,203,1.0,2.0,96,0.00,,,0.00,WUHU216DAVISVP2,2013-09-10 04:16:00,
2013-09-10 00:21:00,68.3,67.1,29.82,SSW,204,1.0,2.0,96,0.00,,,0.00,WUHU216DAVISVP2,2013-09-10 04:21:00,
2013-09-10 00:26:00,68.3,67.1,29.81,SSW,199,0.0,2.0,96,0.00,,,0.00,WUHU216DAVISVP2,2013-09-10 04:26:00,
2013-09-10 00:31:00,68.3,67.1,29.81,SSW,207,2.0,2.0,96,0.00,,,0.00,WUHU216DAVISVP2,2013-09-10 04:31:00,
2013-09-10 00:36:00,68.4,67.5,29.81,SSW,208,1.0,4.0,97,0.00,,,0.00,WUHU216DAVISVP2,2013-09-10 04:36:00,
2013-09-10 00:41:00,68.5,67.6,29.81,SW,220,1.0,4.0,97,0.00,,,0.00,WUHU216DAVISVP2,2013-09-10 04:41:00,
2013-09-10 00:46:00,68.6,67.7,29.81,SSW,210,1.0,5.0,97,0.00,,,0.00,WUHU216DAVISVP2,2013-09-10 04:46:00,
2013-09-10 00:51:00,68.7,67.8,29.80,SSW,197,1.0,5.0,97,0.00,,,0.00,WUHU216DAVISVP2,2013-09-10 04:51:00,
2013-09-10 00:56:00,68.8,67.9,29.80,SSW,207,2.0,6.0,97,0.00,,,0.00,WUHU216DAVISVP2,2013-09-10 04:56:00,
2013-09-10 01:01:00,69.0,68.1,29.80,SSW,193,3.0,6.0,97,0.00,,,0.00,WUHU216DAVISVP2,2013-09-10 05:01:00,
2013-09-10 01:06:00,69.2,68.3,29.80,SSW,197,2.0,6.0,97,0.00,,,0.00,WUHU216DAVISVP2,2013-09-10 05:06:00,
2013-09-10 01:11:00,69.3,68.4,29.80,WSW,248,2.0,6.0,97,0.00,,,0.00,WUHU216DAVISVP2,2013-09-10 05:11:00,
2013-09-10 01:16:00,69.4,68.2,29.80,SSW,206,3.0,6.0,96,0.00,,,0.00,WUHU216DAVISVP2,2013-09-10 05:16:00,
2013-09-10 01:21:00,69.6,68.4,29.80,South,191,3.0,7.0,96,0.00,,,0.00,WUHU216DAVISVP2,2013-09-10 05:21:00,
2013-09-10 01:26:00,69.8,68.6,29.80,SW,219,2.0,8.0,96,0.00,,,0.00,WUHU216DAVISVP2,2013-09-10 05:26:00,
2013-09-10 01:31:00,69.9,68.7,29.80,SW,222,3.0,8.0,96,0.00,,,0.00,WUHU216DAVISVP2,2013-09-10 05:31:00,
2013-09-10 01:36:00,70.1,68.6,29.80,WSW,255,2.0,8.0,95,0.00,,,0.00,WUHU216DAVISVP2,2013-09-10 05:36:00,
2013-09-10 01:41:00,70.3,68.8,29.80,SSW,211,2.0,8.0,95,0.00,,,0.00,WUHU216DAVISVP2,2013-09-10 05:41:00,
2013-09-10 01:46:00,70.5,68.7,29.80,SSW,197,4.0,8.0,94,0.00,,,0.00,WUHU216DAVISVP2,2013-09-10 05:46:00,
2013-09-10 01:51:00,70.8,69.0,29.80,South,174,5.0,8.0,94,0.00,,,0.00,WUHU216DAVISVP2,2013-09-10 05:51:00,
2013-09-10 01:56:00,71.0,68.8,29.80,SSW,213,3.0,8.0,93,0.00,,,0.00,WUHU216DAVISVP2,2013-09-10 05:56:00,
2013-09-10 02:01:00,71.2,69.0,29.80,SW,229,3.0,7.0,93,0.00,,,0.00,WUHU216DAVISVP2,2013-09-10 06:01:00,
2013-09-10 02:06:00,71.5,69.3,29.80,SW,229,2.0,7.0,93,0.00,,,0.00,WUHU216DAVISVP2,2013-09-10 06:06:00,
2013-09-10 02:11:00,71.8,69.3,29.80,WSW,246,3.0,6.0,92,0.00,,,0.00,WUHU216DAVISVP2,2013-09-10 06:11:00,
2013-09-10 02:16:00,72.3,69.5,29.81,WSW,253,3.0,10.0,91,0.00,,,0.00,WUHU216DAVISVP2,2013-09-10 06:16:00,
2013-09-10 02:21:00,72.4,69.6,29.80,SW,229,2.0,10.0,91,0.00,,,0.00,WUHU216DAVISVP2,2013-09-10 06:21:00,
2013-09-10 02:26:00,72.5,69.7,29.81,West,265,2.0,9.0,91,0.00,,,0.00,WUHU216DAVISVP2,2013-09-10 06:26:00,
2013-09-10 02:31:00,72.6,69.5,29.81,WSW,257,1.0,9.0,90,0.00,,,0.00,WUHU216DAVISVP2,2013-09-10 06:31:00,
2013-09-10 02:36:00,72.7,69.6,29.81,WSW,253,2.0,8.0,90,0.00,,,0.00,WUHU216DAVISVP2,2013-09-10 06:36:00,
2013-09-10 02:41:00,72.7,69.9,29.81,WSW,253,1.0,6.0,91,0.00,,,0.00,WUHU216DAVISVP2,2013-09-10 06:41:00,
2013-09-10 02:46:00,72.7,69.9,29.81,SW,219,2.0,5.0,91,0.00,,,0.00,WUHU216DAVISVP2,2013-09-10 06:46:00,
2013-09-10 02:51:00,72.8,70.0,29.81,SSW,195,4.0,5.0,91,0.00,,,0.00,WUHU216DAVISVP2,2013-09-10 06:51:00,
2013-09-10 02:56:00,73.1,70.0,29.81,SW,229,3.0,5.0,90,0.00,,,0.00,WUHU216DAVISVP2,2013-09-10 06:56:00,
2013-09-10 03:01:00,73.3,70.2,29.81,West,262,3.0,5.0,90,0.00,,,0.00,WUHU216DAVISVP2,2013-09-10 07:01:00,
2013-09-10 03:06:00,73.5,70.4,29.81,WSW,239,2.0,5.0,90,0.00,,,0.00,WUHU216DAVISVP2,2013-09-10 07:06:00,
2013-09-10 03:11:00,73.6,70.5,29.81,West,262,1.0,5.0,90,0.00,,,0.00,WUHU216DAVISVP2,2013-09-10 07:11:00,
2013-09-10 03:16:00,73.7,70.3,29.81,SSW,207,1.0,5.0,89,0.00,,,0.00,WUHU216DAVISVP2,2013-09-10 07:16:00,
2013-09-10 03:21:00,73.9,70.4,29.81,SW,224,1.0,5.0,89,0.00,,,0.00,WUHU216DAVISVP2,2013-09-10 07:21:00,
2013-09-10 03:26:00,74.1,70.6,29.82,WSW,248,4.0,4.0,89,0.00,,,0.00,WUHU216DAVISVP2,2013-09-10 07:26:00,
2013-09-10 03:31:00,74.2,70.7,29.81,WSW,249,3.0,5.0,89,0.00,,,0.00,WUHU216DAVISVP2,2013-09-10 07:31:00,
2013-09-10 03:36:00,74.2,70.7,29.81,West,276,2.0,5.0,89,0.00,,,0.00,WUHU216DAVISVP2,2013-09-10 07:36:00,
2013-09-10 03:41:00,74.4,70.9,29.82,SW,231,2.0,5.0,89,0.00,,,0.00,WUHU216DAVISVP2,2013-09-10 07:41:00,
2013-09-10 03:46:00,74.4,70.9,29.82,WSW,245,2.0,5.0,89,0.00,,,0.00,WUHU216DAVISVP2,2013-09-10 07:46:00,
2013-09-10 03:51:00,74.4,70.9,29.82,SSW,208,2.0,5.0,89,0.00,,,0.00,WUHU216DAVISVP2,2013-09-10 07:51:00,
2013-09-10 03:56:00,74.4,70.9,29.82,West,267,3.0,5.0,89,0.00,,,0.00,WUHU216DAVISVP2,2013-09-10 07:56:00,
2013-09-10 04:01:00,74.5,70.7,29.82,West,259,2.0,6.0,88,0.00,,,0.00,WUHU216DAVISVP2,2013-09-10 08:01:00,
2013-09-10 04:06:00,74.6,70.8,29.82,WSW,246,2.0,6.0,88,0.00,,,0.00,WUHU216DAVISVP2,2013-09-10 08:06:00,
2013-09-10 04:11:00,74.5,71.0,29.82,SW,233,2.0,5.0,89,0.00,,,0.00,WUHU216DAVISVP2,2013-09-10 08:11:00,
2013-09-10 04:16:00,74.6,71.1,29.82,SW,229,3.0,6.0,89,0.00,,,0.00,WUHU216DAVISVP2,2013-09-10 08:16:00,
2013-09-10 04:21:00,74.8,71.0,29.82,SSW,197,5.0,6.0,88,0.00,,,0.00,WUHU216DAVISVP2,2013-09-10 08:21:00,
2013-09-10 04:26:00,75.0,71.2,29.82,West,265,3.0,7.0,88,0.00,,,0.00,WUHU216DAVISVP2,2013-09-10 08:26:00,
2013-09-10 04:31:00,74.9,71.1,29.82,WSW,243,2.0,7.0,88,0.00,,,0.00,WUHU216DAVISVP2,2013-09-10 08:31:00,
2013-09-10 04:36:00,74.7,70.9,29.83,WSW,257,1.0,7.0,88,0.00,,,0.00,WUHU216DAVISVP2,2013-09-10 08:36:00,
2013-09-10 04:41:00,74.5,71.0,29.83,SW,234,2.0,7.0,89,0.00,,,0.00,WUHU216DAVISVP2,2013-09-10 08:41:00,
2013-09-10 04:46:00,74.4,70.9,29.83,SW,218,3.0,5.0,89,0.00,,,0.00,WUHU216DAVISVP2,2013-09-10 08:46:00,
2013-09-10 04:51:00,74.3,70.8,29.83,SW,217,4.0,5.0,89,0.00,,,0.00,WUHU216DAVISVP2,2013-09-10 08:51:00,
2013-09-10 04:56:00,74.2,70.7,29.83,WSW,243,3.0,5.0,89,0.00,,,0.00,WUHU216DAVISVP2,2013-09-10 08:56:00,
2013-09-10 05:01:00,74.1,70.6,29.83,WSW,246,1.0,4.0,89,0.00,,,0.00,WUHU216DAVISVP2,2013-09-10 09:01:00,
2013-09-10 05:06:00,74.0,70.9,29.83,WSW,243,1.0,4.0,90,0.00,,,0.00,WUHU216DAVISVP2,2013-09-10 09:06:00,
2013-09-10 05:11:00,73.7,70.6,29.83,SSW,211,2.0,4.0,90,0.00,,,0.00,WUHU216DAVISVP2,2013-09-10 09:11:00,
2013-09-10 05:16:00,73.4,70.6,29.83,SW,231,2.0,4.0,91,0.00,,,0.00,WUHU216DAVISVP2,2013-09-10 09:16:00,
2013-09-10 05:21:00,73.3,70.5,29.83,SSW,206,2.0,4.0,91,0.00,,,0.00,WUHU216DAVISVP2,2013-09-10 09:21:00,
2013-09-10 05:26:00,73.1,70.3,29.83,WSW,250,2.0,4.0,91,0.00,,,0.00,WUHU216DAVISVP2,2013-09-10 09:26:00,
2013-09-10 05:31:00,72.9,70.4,29.83,SW,217,2.0,3.0,92,0.00,,,0.00,WUHU216DAVISVP2,2013-09-10 09:31:00,
2013-09-10 05:36:00,72.7,70.2,29.83,WSW,252,1.0,4.0,92,0.00,,,0.00,WUHU216DAVISVP2,2013-09-10 09:36:00,
2013-09-10 05:41:00,72.6,70.1,29.83,WSW,242,2.0,4.0,92,0.00,,,0.00,WUHU216DAVISVP2,2013-09-10 09:41:00,
2013-09-10 05:46:00,72.4,70.2,29.83,WSW,250,2.0,4.0,93,0.00,,,0.00,WUHU216DAVISVP2,2013-09-10 09:46:00,
2013-09-10 05:51:00,72.4,70.2,29.83,SW,229,2.0,3.0,93,0.00,,,0.00,WUHU216DAVISVP2,2013-09-10 09:51:00,
2013-09-10 05:56:00,72.2,70.0,29.83,SW,221,2.0,3.0,93,0.00,,,0.00,WUHU216DAVISVP2,2013-09-10 09:56:00,
2013-09-10 06:01:00,72.1,69.9,29.83,SW,225,2.0,3.0,93,0.00,,,0.00,WUHU216DAVISVP2,2013-09-10 10:01:00,
2013-09-10 06:06:00,72.0,69.8,29.83,SW,231,2.0,3.0,93,0.00,,,0.00,WUHU216DAVISVP2,2013-09-10 10:06:00,
2013-09-10 06:11:00,71.9,69.7,29.84,SW,214,3.0,3.0,93,0.00,,,0.00,WUHU216DAVISVP2,2013-09-10 10:11:00,
2013-09-10 06:16:00,71.9,70.1,29.84,SW,228,2.0,3.0,94,0.00,,,0.00,WUHU216DAVISVP2,2013-09-10 10:16:00,
2013-09-10 06:21:00,71.9,70.1,29.84,WSW,243,2.0,4.0,94,0.00,,,0.00,WUHU216DAVISVP2,2013-09-10 10:21:00,
2013-09-10 06:26:00,71.9,70.1,29.84,WSW,241,2.0,4.0,94,0.00,,,0.00,WUHU216DAVISVP2,2013-09-10 10:26:00,
2013-09-10 06:31:00,71.9,70.1,29.84,SW,225,2.0,4.0,94,0.00,,,0.00,WUHU216DAVISVP2,2013-09-10 10:31:00,
2013-09-10 06:36:00,71.9,70.1,29.84,WSW,256,2.0,4.0,94,0.00,,,0.00,WUHU216DAVISVP2,2013-09-10 10:36:00,
2013-09-10 06:41:00,71.9,70.1,29.84,South,177,2.0,3.0,94,0.00,,,0.00,WUHU216DAVISVP2,2013-09-10 10:41:00,
2013-09-10 06:46:00,71.9,70.1,29.84,WSW,237,1.0,3.0,94,0.00,,,0.00,WUHU216DAVISVP2,2013-09-10 10:46:00,
2013-09-10 06:51:00,71.8,70.0,29.84,SW,235,2.0,3.0,94,0.00,,,0.00,WUHU216DAVISVP2,2013-09-10 10:51:00,
2013-09-10 06:56:00,71.9,70.1,29.84,WSW,256,1.0,3.0,94,0.00,,,0.00,WUHU216DAVISVP2,2013-09-10 10:56:00,
2013-09-10 07:01:00,71.9,70.1,29.84,WSW,256,1.0,3.0,94,0.00,,,0.00,WUHU216DAVISVP2,2013-09-10 11:01:00,
2013-09-10 07:06:00,71.9,70.1,29.85,SW,236,2.0,3.0,94,0.00,,,0.00,WUHU216DAVISVP2,2013-09-10 11:06:00,
2013-09-10 07:11:00,72.1,70.0,29.85,WSW,246,2.0,4.0,93,0.00,,,0.00,WUHU216DAVISVP2,2013-09-10 11:11:00,
2013-09-10 07:16:00,72.4,70.3,29.85,WSW,249,2.0,4.0,93,0.00,,,0.00,WUHU216DAVISVP2,2013-09-10 11:16:00,
2013-09-10 07:21:00,72.6,70.1,29.85,WSW,258,1.0,4.0,92,0.00,,,0.00,WUHU216DAVISVP2,2013-09-10 11:21:00,
2013-09-10 07:26:00,72.9,70.1,29.85,WSW,252,1.0,4.0,91,0.00,,,0.00,WUHU216DAVISVP2,2013-09-10 11:26:00,
2013-09-10 07:31:00,73.1,70.3,29.85,WSW,252,2.0,4.0,91,0.00,,,0.00,WUHU216DAVISVP2,2013-09-10 11:31:00,
2013-09-10 07:36:00,73.3,70.5,29.85,WSW,241,3.0,7.0,91,0.00,,,0.00,WUHU216DAVISVP2,2013-09-10 11:36:00,
2013-09-10 07:41:00,73.5,70.4,29.85,West,263,2.0,7.0,90,0.00,,,0.00,WUHU216DAVISVP2,2013-09-10 11:41:00,
2013-09-10 07:46:00,73.8,70.7,29.85,WSW,242,3.0,7.0,90,0.00,,,0.00,WUHU216DAVISVP2,2013-09-10 11:46:00,
2013-09-10 07:51:00,74.0,70.6,29.86,West,262,2.0,7.0,89,0.00,,,0.00,WUHU216DAVISVP2,2013-09-10 11:51:00,
2013-09-10 07:56:00,74.2,70.7,29.86,SW,233,3.0,6.0,89,0.00,,,0.00,WUHU216DAVISVP2,2013-09-10 11:56:00,
2013-09-10 08:01:00,74.4,70.6,29.86,West,263,3.0,7.0,88,0.00,,,0.00,WUHU216DAVISVP2,2013-09-10 12:01:00,
2013-09-10 08:06:00,74.6,70.8,29.86,WSW,246,3.0,7.0,88,0.00,,,0.00,WUHU216DAVISVP2,2013-09-10 12:06:00,
2013-09-10 08:11:00,74.8,71.0,29.86,WSW,245,3.0,6.0,88,0.00,,,0.00,WUHU216DAVISVP2,2013-09-10 12:11:00,
2013-09-10 08:16:00,75.0,71.2,29.86,SW,226,3.0,6.0,88,0.00,,,0.00,WUHU216DAVISVP2,2013-09-10 12:16:00,
2013-09-10 08:21:00,75.1,71.0,29.86,WSW,238,1.0,6.0,87,0.00,,,0.00,WUHU216DAVISVP2,2013-09-10 12:21:00,
2013-09-10 08:26:00,75.2,71.1,29.86,West,271,2.0,6.0,87,0.00,,,0.00,WUHU216DAVISVP2,2013-09-10 12:26:00,
2013-09-10 08:31:00,75.3,71.2,29.86,WSW,243,3.0,5.0,87,0.00,,,0.00,WUHU216DAVISVP2,2013-09-10 12:31:00,
2013-09-10 08:36:00,75.2,71.1,29.86,WSW,248,2.0,5.0,87,0.00,,,0.00,WUHU216DAVISVP2,2013-09-10 12:36:00,
2013-09-10 08:41:00,75.2,71.1,29.87,SW,234,3.0,5.0,87,0.00,,,0.00,WUHU216DAVISVP2,2013-09-10 12:41:00,
2013-09-10 08:46:00,75.4,71.3,29.86,SW,230,3.0,5.0,87,0.00,,,0.00,WUHU216DAVISVP2,2013-09-10 12:46:00,
2013-09-10 08:51:00,75.7,71.6,29.87,West,269,3.0,6.0,87,0.00,,,0.00,WUHU216DAVISVP2,2013-09-10 12:51:00,
2013-09-10 08:56:00,76.1,71.6,29.87,SW,221,3.0,6.0,86,0.00,,,0.00,WUHU216DAVISVP2,2013-09-10 12:56:00,
2013-09-10 09:01:00,76.4,71.6,29.86,WSW,253,3.0,6.0,85,0.00,,,0.00,WUHU216DAVISVP2,2013-09-10 13:01:00,
2013-09-10 09:06:00,76.7,71.8,29.86,West,267,2.0,6.0,85,0.00,,,0.00,WUHU216DAVISVP2,2013-09-10 13:06:00,
2013-09-10 09:11:00,77.1,71.9,29.86,WSW,244,6.0,7.0,84,0.00,,,0.00,WUHU216DAVISVP2,2013-09-10 13:11:00,
2013-09-10 09:16:00,77.4,72.2,29.86,West,266,4.0,7.0,84,0.00,,,0.00,WUHU216DAVISVP2,2013-09-10 13:16:00,
2013-09-10 09:21:00,77.7,71.8,29.87,West,262,3.0,7.0,82,0.00,,,0.00,WUHU216DAVISVP2,2013-09-10 13:21:00,
2013-09-10 09:26:00,78.1,71.8,29.87,WSW,245,4.0,7.0,81,0.00,,,0.00,WUHU216DAVISVP2,2013-09-10 13:26:00,
2013-09-10 09:31:00,78.4,72.1,29.87,West,266,1.0,7.0,81,0.00,,,0.00,WUHU216DAVISVP2,2013-09-10 13:31:00,
2013-09-10 09:36:00,78.8,72.1,29.87,West,263,3.0,7.0,80,0.00,,,0.00,WUHU216DAVISVP2,2013-09-10 13:36:00,
2013-09-10 09:41:00,78.9,72.3,29.87,WSW,255,3.0,7.0,80,0.00,,,0.00,WUHU216DAVISVP2,2013-09-10 13:41:00,
2013-09-10 09:46:00,79.2,72.2,29.87,SW,230,3.0,7.0,79,0.00,,,0.00,WUHU216DAVISVP2,2013-09-10 13:46:00,
2013-09-10 09:51:00,79.5,72.2,29.87,West,269,3.0,7.0,78,0.00,,,0.00,WUHU216DAVISVP2,2013-09-10 13:51:00,
2013-09-10 09:56:00,79.7,72.4,29.88,SW,226,4.0,6.0,78,0.00,,,0.00,WUHU216DAVISVP2,2013-09-10 13:56:00,
2013-09-10 10:01:00,79.9,72.2,29.88,West,281,6.0,8.0,77,0.00,,,0.00,WUHU216DAVISVP2,2013-09-10 14:01:00,
2013-09-10 10:06:00,80.1,72.4,29.88,West,264,3.0,10.0,77,0.00,,,0.00,WUHU216DAVISVP2,2013-09-10 14:06:00,
2013-09-10 10:11:00,80.2,72.5,29.88,WSW,249,3.0,10.0,77,0.00,,,0.00,WUHU216DAVISVP2,2013-09-10 14:11:00,
2013-09-10 10:16:00,80.5,72.4,29.88,WSW,249,5.0,9.0,76,0.00,,,0.00,WUHU216DAVISVP2,2013-09-10 14:16:00,
2013-09-10 10:21:00,80.8,72.7,29.88,WSW,249,6.0,9.0,76,0.00,,,0.00,WUHU216DAVISVP2,2013-09-10 14:21:00,
2013-09-10 10:26:00,81.2,72.7,29.88,West,262,2.0,9.0,75,0.00,,,0.00,WUHU216DAVISVP2,2013-09-10 14:26:00,
2013-09-10 10:31:00,81.5,72.6,29.88,West,269,5.0,9.0,74,0.00,,,0.00,WUHU216DAVISVP2,2013-09-10 14:31:00,
2013-09-10 10:36:00,81.9,73.0,29.88,West,274,4.0,8.0,74,0.00,,,0.00,WUHU216DAVISVP2,2013-09-10 14:36:00,
2013-09-10 10:41:00,82.2,73.3,29.88,South,188,2.0,6.0,74,0.00,,,0.00,WUHU216DAVISVP2,2013-09-10 14:41:00,
2013-09-10 10:46:00,82.5,73.2,29.88,WSW,250,4.0,8.0,73,0.00,,,0.00,WUHU216DAVISVP2,2013-09-10 14:46:00,
2013-09-10 10:51:00,82.6,73.3,29.89,WSW,242,5.0,9.0,73,0.00,,,0.00,WUHU216DAVISVP2,2013-09-10 14:51:00,
2013-09-10 10:56:00,82.8,73.5,29.88,SW,232,3.0,9.0,73,0.00,,,0.00,WUHU216DAVISVP2,2013-09-10 14:56:00,
2013-09-10 11:01:00,83.2,73.9,29.88,SW,235,4.0,9.0,73,0.00,,,0.00,WUHU216DAVISVP2,2013-09-10 15:01:00,
2013-09-10 11:06:00,83.4,73.6,29.88,West,274,5.0,9.0,72,0.00,,,0.00,WUHU216DAVISVP2,2013-09-10 15:06:00,
2013-09-10 11:11:00,83.5,73.3,29.88,WSW,242,4.0,9.0,71,0.00,,,0.00,WUHU216DAVISVP2,2013-09-10 15:11:00,
2013-09-10 11:16:00,83.8,72.8,29.89,WSW,258,4.0,9.0,69,0.00,,,0.00,WUHU216DAVISVP2,2013-09-10 15:16:00,
2013-09-10 11:21:00,84.1,73.7,29.89,West,263,6.0,8.0,71,0.00,,,0.00,WUHU216DAVISVP2,2013-09-10 15:21:00,
2013-09-10 11:26:00,84.3,73.0,29.88,West,266,3.0,8.0,69,0.00,,,0.00,WUHU216DAVISVP2,2013-09-10 15:26:00,
2013-09-10 11:31:00,84.6,73.7,29.88,SSW,207,4.0,7.0,70,0.00,,,0.00,WUHU216DAVISVP2,2013-09-10 15:31:00,
2013-09-10 11:36:00,85.0,73.5,29.88,WSW,255,4.0,7.0,68,0.00,,,0.00,WUHU216DAVISVP2,2013-09-10 15:36:00,
2013-09-10 11:41:00,85.1,73.2,29.89,West,264,3.0,7.0,67,0.00,,,0.00,WUHU216DAVISVP2,2013-09-10 15:41:00,
2013-09-10 11:46:00,85.3,72.9,29.88,SW,219,5.0,8.0,66,0.00,,,0.00,WUHU216DAVISVP2,2013-09-10 15:46:00,
2013-09-10 11:51:00,85.6,73.7,29.89,West,261,3.0,8.0,67,0.00,,,0.00,WUHU216DAVISVP2,2013-09-10 15:51:00,
2013-09-10 11:56:00,85.9,73.5,29.89,SW,228,6.0,7.0,66,0.00,,,0.00,WUHU216DAVISVP2,2013-09-10 15:56:00,
2013-09-10 12:01:00,86.2,73.3,29.88,SW,233,5.0,7.0,65,0.00,,,0.00,WUHU216DAVISVP2,2013-09-10 16:01:00,
2013-09-10 12:06:00,86.6,73.7,29.88,West,259,4.0,7.0,65,0.00,,,0.00,WUHU216DAVISVP2,2013-09-10 16:06:00,
2013-09-10 12:11:00,86.7,72.4,29.88,WSW,253,4.0,10.0,62,0.00,,,0.00,WUHU216DAVISVP2,2013-09-10 16:11:00,
2013-09-10 12:16:00,86.9,72.6,29.88,WSW,252,4.0,10.0,62,0.00,,,0.00,WUHU216DAVISVP2,2013-09-10 16:16:00,
2013-09-10 12:21:00,87.3,72.2,29.88,West,271,3.0,9.0,61,0.00,,,0.00,WUHU216DAVISVP2,2013-09-10 16:21:00,
2013-09-10 12:26:00,87.6,72.5,29.88,West,259,4.0,9.0,61,0.00,,,0.00,WUHU216DAVISVP2,2013-09-10 16:26:00,
2013-09-10 12:31:00,87.9,72.3,29.88,WNW,283,3.0,8.0,60,0.00,,,0.00,WUHU216DAVISVP2,2013-09-10 16:31:00,
2013-09-10 12:36:00,88.2,72.8,29.88,West,262,4.0,8.0,60,0.00,,,0.00,WUHU216DAVISVP2,2013-09-10 16:36:00,
2013-09-10 12:41:00,88.4,72.0,29.88,WSW,250,5.0,9.0,58,0.00,,,0.00,WUHU216DAVISVP2,2013-09-10 16:41:00,
2013-09-10 12:46:00,88.5,72.1,29.88,West,263,4.0,9.0,58,0.00,,,0.00,WUHU216DAVISVP2,2013-09-10 16:46:00,
2013-09-10 12:51:00,89.0,72.6,29.88,West,263,4.0,9.0,58,0.00,,,0.00,WUHU216DAVISVP2,2013-09-10 16:51:00,
2013-09-10 12:56:00,89.3,72.1,29.88,WSW,242,4.0,9.0,57,0.00,,,0.00,WUHU216DAVISVP2,2013-09-10 16:56:00,
2013-09-10 13:01:00,89.3,71.8,29.88,SW,231,3.0,9.0,56,0.00,,,0.00,WUHU216DAVISVP2,2013-09-10 17:01:00,
2013-09-10 13:06:00,89.4,71.4,29.88,WSW,249,6.0,10.0,55,0.00,,,0.00,WUHU216DAVISVP2,2013-09-10 17:06:00,
2013-09-10 13:11:00,89.6,71.5,29.88,West,263,5.0,10.0,55,0.00,,,0.00,WUHU216DAVISVP2,2013-09-10 17:11:00,
2013-09-10 13:16:00,89.6,71.3,29.88,WSW,252,6.0,9.0,55,0.00,,,0.00,WUHU216DAVISVP2,2013-09-10 17:16:00,
2013-09-10 13:21:00,89.6,71.5,29.88,WSW,252,4.0,9.0,55,0.00,,,0.00,WUHU216DAVISVP2,2013-09-10 17:21:00,
2013-09-10 13:26:00,89.9,71.3,29.88,West,263,5.0,10.0,54,0.00,,,0.00,WUHU216DAVISVP2,2013-09-10 17:26:00,
2013-09-10 13:31:00,90.4,71.2,29.88,SW,221,4.0,10.0,53,0.00,,,0.00,WUHU216DAVISVP2,2013-09-10 17:31:00,
2013-09-10 13:36:00,90.6,71.4,29.88,West,264,2.0,10.0,53,0.00,,,0.00,WUHU216DAVISVP2,2013-09-10 17:36:00,
2013-09-10 13:41:00,90.8,71.5,29.88,WSW,251,6.0,10.0,53,0.00,,,0.00,WUHU216DAVISVP2,2013-09-10 17:41:00,
2013-09-10 13:46:00,91.1,71.8,29.88,WNW,298,2.0,10.0,53,0.00,,,0.00,WUHU216DAVISVP2,2013-09-10 17:46:00,
2013-09-10 13:51:00,91.1,70.1,29.88,West,264,4.0,12.0,50,0.00,,,0.00,WUHU216DAVISVP2,2013-09-10 17:51:00,
2013-09-10 13:56:00,91.0,70.0,29.88,West,259,4.0,12.0,50,0.00,,,0.00,WUHU216DAVISVP2,2013-09-10 17:56:00,
2013-09-10 14:01:00,91.4,70.1,29.88,West,259,9.0,11.0,50,0.00,,,0.00,WUHU216DAVISVP2,2013-09-10 18:01:00,
2013-09-10 14:06:00,91.5,69.6,29.88,WSW,257,7.0,11.0,49,0.00,,,0.00,WUHU216DAVISVP2,2013-09-10 18:06:00,
2013-09-10 14:11:00,91.5,70.4,29.88,SW,236,5.0,10.0,50,0.00,,,0.00,WUHU216DAVISVP2,2013-09-10 18:11:00,
2013-09-10 14:16:00,91.3,69.6,29.88,WSW,256,3.0,11.0,49,0.00,,,0.00,WUHU216DAVISVP2,2013-09-10 18:16:00,
2013-09-10 14:21:00,91.3,69.0,29.88,SW,228,5.0,11.0,48,0.00,,,0.00,WUHU216DAVISVP2,2013-09-10 18:21:00,
2013-09-10 14:26:00,91.4,69.6,29.88,WSW,257,4.0,11.0,49,0.00,,,0.00,WUHU216DAVISVP2,2013-09-10 18:26:00,
2013-09-10 14:31:00,91.5,69.8,29.88,WSW,243,8.0,11.0,49,0.00,,,0.00,WUHU216DAVISVP2,2013-09-10 18:31:00,
2013-09-10 14:36:00,91.5,69.2,29.88,West,266,5.0,12.0,48,0.00,,,0.00,WUHU216DAVISVP2,2013-09-10 18:36:00,
2013-09-10 14:41:00,91.6,69.3,29.88,West,277,8.0,12.0,48,0.00,,,0.00,WUHU216DAVISVP2,2013-09-10 18:41:00,
2013-09-10 14:46:00,91.6,69.3,29.88,WSW,248,3.0,11.0,48,0.00,,,0.00,WUHU216DAVISVP2,2013-09-10 18:46:00,
2013-09-10 14:51:00,91.8,68.8,29.88,WSW,257,12.0,12.0,47,0.00,,,0.00,WUHU216DAVISVP2,2013-09-10 18:51:00,
2013-09-10 14:56:00,91.6,68.7,29.88,WNW,282,6.0,12.0,47,0.00,,,0.00,WUHU216DAVISVP2,2013-09-10 18:56:00,
2013-09-10 15:01:00,91.5,67.9,29.88,West,260,4.0,12.0,46,0.00,,,0.00,WUHU216DAVISVP2,2013-09-10 19:01:00,
2013-09-10 15:06:00,91.5,68.6,29.88,West,270,4.0,12.0,47,0.00,,,0.00,WUHU216DAVISVP2,2013-09-10 19:06:00,
2013-09-10 15:11:00,91.6,69.3,29.88,WSW,249,5.0,11.0,48,0.00,,,0.00,WUHU216DAVISVP2,2013-09-10 19:11:00,
2013-09-10 15:16:00,91.5,67.8,29.88,WSW,245,4.0,12.0,46,0.00,,,0.00,WUHU216DAVISVP2,2013-09-10 19:16:00,
2013-09-10 15:23:00,91.6,67.3,29.87,West,262,6.0,13.0,45,0.00,,,0.00,WUHU216DAVISVP2,2013-09-10 19:23:00,
2013-09-10 15:28:00,91.6,67.3,29.87,WSW,240,3.0,13.0,45,0.00,,,0.00,WUHU216DAVISVP2,2013-09-10 19:28:00,
2013-09-10 15:33:00,91.8,67.5,29.88,WSW,246,4.0,12.0,45,0.00,,,0.00,WUHU216DAVISVP2,2013-09-10 19:33:00,
2013-09-10 15:38:00,91.9,66.9,29.87,West,271,6.0,12.0,44,0.00,,,0.00,WUHU216DAVISVP2,2013-09-10 19:38:00,
2013-09-10 15:43:00,91.7,66.8,29.87,WSW,239,5.0,11.0,44,0.00,,,0.00,WUHU216DAVISVP2,2013-09-10 19:43:00,
2013-09-10 15:48:00,91.6,66.7,29.87,WSW,245,3.0,12.0,44,0.00,,,0.00,WUHU216DAVISVP2,2013-09-10 19:48:00,
2013-09-10 15:53:00,91.8,66.2,29.87,West,274,6.0,12.0,43,0.00,,,0.00,WUHU216DAVISVP2,2013-09-10 19:53:00,
2013-09-10 15:58:00,92.0,65.7,29.87,SW,220,8.0,12.0,42,0.00,,,0.00,WUHU216DAVISVP2,2013-09-10 19:58:00,
2013-09-10 16:03:00,92.0,66.4,29.87,West,259,4.0,12.0,43,0.00,,,0.00,WUHU216DAVISVP2,2013-09-10 20:03:00,
2013-09-10 16:08:00,91.7,65.4,29.87,SW,236,4.0,12.0,42,0.00,,,0.00,WUHU216DAVISVP2,2013-09-10 20:08:00,
2013-09-10 16:13:00,91.9,66.3,29.87,WSW,256,4.0,12.0,43,0.00,,,0.00,WUHU216DAVISVP2,2013-09-10 20:13:00,
2013-09-10 16:18:00,91.8,64.8,29.87,West,267,4.0,12.0,41,0.00,,,0.00,WUHU216DAVISVP2,2013-09-10 20:18:00,
2013-09-10 16:23:00,91.7,66.0,29.87,WSW,239,4.0,11.0,43,0.00,,,0.00,WUHU216DAVISVP2,2013-09-10 20:23:00,
2013-09-10 16:28:00,92.0,66.4,29.87,WSW,245,6.0,11.0,43,0.00,,,0.00,WUHU216DAVISVP2,2013-09-10 20:28:00,
2013-09-10 16:33:00,91.8,65.5,29.87,West,261,7.0,14.0,42,0.00,,,0.00,WUHU216DAVISVP2,2013-09-10 20:33:00,
2013-09-10 16:38:00,91.7,66.1,29.87,WSW,243,3.0,14.0,43,0.00,,,0.00,WUHU216DAVISVP2,2013-09-10 20:38:00,
2013-09-10 16:43:00,91.8,65.4,29.87,West,278,3.0,14.0,42,0.00,,,0.00,WUHU216DAVISVP2,2013-09-10 20:43:00,
2013-09-10 16:48:00,91.6,66.0,29.87,West,268,4.0,14.0,43,0.00,,,0.00,WUHU216DAVISVP2,2013-09-10 20:48:00,
2013-09-10 16:53:00,91.5,66.6,29.87,West,261,3.0,10.0,44,0.00,,,0.00,WUHU216DAVISVP2,2013-09-10 20:53:00,
2013-09-10 16:58:00,91.6,66.0,29.87,SW,225,7.0,13.0,43,0.00,,,0.00,WUHU216DAVISVP2,2013-09-10 20:58:00,
2013-09-10 17:03:00,91.5,66.6,29.87,West,262,2.0,13.0,44,0.00,,,0.00,WUHU216DAVISVP2,2013-09-10 21:03:00,
2013-09-10 17:08:00,91.4,65.8,29.87,West,273,6.0,12.0,43,0.00,,,0.00,WUHU216DAVISVP2,2013-09-10 21:08:00,
2013-09-10 17:13:00,91.2,66.3,29.87,West,263,5.0,10.0,44,0.00,,,0.00,WUHU216DAVISVP2,2013-09-10 21:13:00,
2013-09-10 17:18:00,91.2,67.0,29.87,West,263,3.0,10.0,45,0.00,,,0.00,WUHU216DAVISVP2,2013-09-10 21:18:00,
2013-09-10 17:23:00,91.2,67.6,29.87,WSW,248,3.0,10.0,46,0.00,,,0.00,WUHU216DAVISVP2,2013-09-10 21:23:00,
2013-09-10 17:28:00,91.2,67.6,29.87,WSW,255,3.0,7.0,46,0.00,,,0.00,WUHU216DAVISVP2,2013-09-10 21:28:00,
2013-09-10 17:33:00,91.1,67.5,29.87,WSW,253,4.0,7.0,46,0.00,,,0.00,WUHU216DAVISVP2,2013-09-10 21:33:00,
2013-09-10 17:38:00,91.0,67.5,29.87,West,264,5.0,7.0,46,0.00,,,0.00,WUHU216DAVISVP2,2013-09-10 21:38:00,
2013-09-10 17:43:00,90.9,68.0,29.87,SW,231,5.0,8.0,47,0.00,,,0.00,WUHU216DAVISVP2,2013-09-10 21:43:00,
2013-09-10 17:48:00,90.9,68.0,29.87,WSW,257,3.0,8.0,47,0.00,,,0.00,WUHU216DAVISVP2,2013-09-10 21:48:00,
2013-09-10 17:53:00,90.9,68.0,29.87,West,269,2.0,8.0,47,0.00,,,0.00,WUHU216DAVISVP2,2013-09-10 21:53:00,
2013-09-10 17:58:00,90.9,68.0,29.86,WSW,250,4.0,6.0,47,0.00,,,0.00,WUHU216DAVISVP2,2013-09-10 21:58:00,
2013-09-10 18:03:00,90.8,68.5,29.86,West,276,3.0,6.0,48,0.00,,,0.00,WUHU216DAVISVP2,2013-09-10 22:03:00,
2013-09-10 18:08:00,90.5,68.9,29.87,WSW,250,1.0,6.0,49,0.00,,,0.00,WUHU216DAVISVP2,2013-09-10 22:08:00,
2013-09-10 18:13:00,90.5,68.9,29.87,SW,236,3.0,6.0,49,0.00,,,0.00,WUHU216DAVISVP2,2013-09-10 22:13:00,
2013-09-10 18:18:00,90.3,69.3,29.87,WSW,242,3.0,7.0,50,0.00,,,0.00,WUHU216DAVISVP2,2013-09-10 22:18:00,
2013-09-10 18:23:00,90.3,69.3,29.86,SW,231,3.0,7.0,50,0.00,,,0.00,WUHU216DAVISVP2,2013-09-10 22:23:00,
2013-09-10 18:28:00,90.0,69.0,29.87,West,260,1.0,6.0,50,0.00,,,0.00,WUHU216DAVISVP2,2013-09-10 22:28:00,
2013-09-10 18:33:00,90.0,69.6,29.86,WSW,250,2.0,6.0,51,0.00,,,0.00,WUHU216DAVISVP2,2013-09-10 22:33:00,
2013-09-10 18:38:00,90.0,70.2,29.87,WSW,248,2.0,5.0,52,0.00,,,0.00,WUHU216DAVISVP2,2013-09-10 22:38:00,
2013-09-10 18:43:00,89.9,70.1,29.87,WSW,256,1.0,4.0,52,0.00,,,0.00,WUHU216DAVISVP2,2013-09-10 22:43:00,
2013-09-10 18:48:00,89.7,69.9,29.87,WSW,255,1.0,4.0,52,0.00,,,0.00,WUHU216DAVISVP2,2013-09-10 22:48:00,
2013-09-10 18:53:00,89.4,69.7,29.87,WSW,241,2.0,4.0,52,0.00,,,0.00,WUHU216DAVISVP2,2013-09-10 22:53:00,
2013-09-10 18:58:00,89.1,70.0,29.87,West,261,1.0,4.0,53,0.00,,,0.00,WUHU216DAVISVP2,2013-09-10 22:58:00,
2013-09-10 19:03:00,88.8,70.2,29.87,West,261,0.0,4.0,54,0.00,,,0.00,WUHU216DAVISVP2,2013-09-10 23:03:00,
2013-09-10 19:08:00,88.5,70.0,29.87,WSW,238,1.0,4.0,54,0.00,,,0.00,WUHU216DAVISVP2,2013-09-10 23:08:00,
2013-09-10 19:13:00,88.3,70.3,29.86,SSW,201,1.0,3.0,55,0.00,,,0.00,WUHU216DAVISVP2,2013-09-10 23:13:00,
2013-09-10 19:18:00,88.0,70.3,29.86,WSW,239,1.0,3.0,56,0.00,,,0.00,WUHU216DAVISVP2,2013-09-10 23:18:00,
2013-09-10 19:23:00,87.8,70.4,29.86,WSW,243,1.0,3.0,56,0.00,,,0.00,WUHU216DAVISVP2,2013-09-10 23:23:00,
2013-09-10 19:28:00,87.5,70.7,29.87,SW,231,1.0,3.0,57,0.00,,,0.00,WUHU216DAVISVP2,2013-09-10 23:28:00,
2013-09-10 19:33:00,87.1,70.8,29.87,SSW,212,1.0,2.0,58,0.00,,,0.00,WUHU216DAVISVP2,2013-09-10 23:33:00,
2013-09-10 19:38:00,86.6,70.8,29.87,SW,228,1.0,2.0,59,0.00,,,0.00,WUHU216DAVISVP2,2013-09-10 23:38:00,
2013-09-10 19:43:00,86.2,70.2,29.87,WSW,245,1.0,2.0,59,0.00,,,0.00,WUHU216DAVISVP2,2013-09-10 23:43:00,
2013-09-10 19:48:00,85.8,70.6,29.87,SW,235,1.0,3.0,60,0.00,,,0.00,WUHU216DAVISVP2,2013-09-10 23:48:00,
2013-09-10 19:53:00,85.5,70.8,29.87,West,262,1.0,3.0,61,0.00,,,0.00,WUHU216DAVISVP2,2013-09-10 23:53:00,
2013-09-10 19:58:00,85.2,70.7,29.88,SW,233,1.0,3.0,62,0.00,,,0.00,WUHU216DAVISVP2,2013-09-10 23:58:00,
2013-09-10 20:03:00,84.9,70.7,29.88,WSW,255,1.0,3.0,62,0.00,,,0.00,WUHU216DAVISVP2,2013-09-11 00:03:00,
2013-09-10 20:08:00,84.6,70.9,29.88,WSW,255,1.0,2.0,63,0.00,,,0.00,WUHU216DAVISVP2,2013-09-11 00:08:00,
2013-09-10 20:13:00,84.3,70.6,29.88,WSW,254,0.0,1.0,63,0.00,,,0.00,WUHU216DAVISVP2,2013-09-11 00:13:00,
2013-09-10 20:18:00,84.0,70.5,29.88,WSW,255,0.0,1.0,64,0.00,,,0.00,WUHU216DAVISVP2,2013-09-11 00:18:00,
2013-09-10 20:23:00,83.8,70.3,29.88,WSW,255,1.0,1.0,64,0.00,,,0.00,WUHU216DAVISVP2,2013-09-11 00:23:00,
2013-09-10 20:28:00,83.6,70.9,29.88,WSW,255,0.0,1.0,65,0.00,,,0.00,WUHU216DAVISVP2,2013-09-11 00:28:00,
2013-09-10 20:33:00,83.3,71.0,29.89,WSW,254,0.0,1.0,66,0.00,,,0.00,WUHU216DAVISVP2,2013-09-11 00:33:00,
2013-09-10 20:38:00,83.0,70.7,29.89,WSW,254,0.0,1.0,66,0.00,,,0.00,WUHU216DAVISVP2,2013-09-11 00:38:00,
2013-09-10 20:43:00,82.8,71.0,29.89,WSW,255,0.0,1.0,67,0.00,,,0.00,WUHU216DAVISVP2,2013-09-11 00:43:00,
2013-09-10 20:48:00,82.6,70.8,29.89,WSW,255,0.0,1.0,67,0.00,,,0.00,WUHU216DAVISVP2,2013-09-11 00:48:00,
2013-09-10 20:53:00,82.4,70.8,29.90,WSW,255,0.0,1.0,68,0.00,,,0.00,WUHU216DAVISVP2,2013-09-11 00:53:00,
2013-09-10 20:58:00,82.1,70.5,29.90,WSW,255,0.0,1.0,68,0.00,,,0.00,WUHU216DAVISVP2,2013-09-11 00:58:00,
2013-09-10 21:04:00,81.9,71.0,29.90,WSW,254,1.0,1.0,69,0.00,,,0.00,WUHU216DAVISVP2,2013-09-11 01:04:00,
2013-09-10 21:09:00,81.9,71.0,29.90,WSW,255,1.0,1.0,69,0.00,,,0.00,WUHU216DAVISVP2,2013-09-11 01:09:00,
2013-09-10 21:14:00,81.9,71.0,29.90,West,263,1.0,1.0,69,0.00,,,0.00,WUHU216DAVISVP2,2013-09-11 01:14:00,
2013-09-10 21:19:00,81.8,70.9,29.90,West,264,1.0,1.0,69,0.00,,,0.00,WUHU216DAVISVP2,2013-09-11 01:19:00,
2013-09-10 21:24:00,81.8,70.4,29.91,WSW,256,1.0,2.0,68,0.00,,,0.00,WUHU216DAVISVP2,2013-09-11 01:24:00,
2013-09-10 21:29:00,81.8,70.4,29.91,WSW,257,1.0,2.0,68,0.00,,,0.00,WUHU216DAVISVP2,2013-09-11 01:29:00,
2013-09-10 21:34:00,81.8,70.2,29.91,WSW,249,1.0,2.0,68,0.00,,,0.00,WUHU216DAVISVP2,2013-09-11 01:34:00,
2013-09-10 21:39:00,81.8,70.2,29.90,West,270,1.0,2.0,68,0.00,,,0.00,WUHU216DAVISVP2,2013-09-11 01:39:00,
2013-09-10 21:44:00,81.7,70.1,29.90,West,259,1.0,1.0,68,0.00,,,0.00,WUHU216DAVISVP2,2013-09-11 01:44:00,
2013-09-10 21:49:00,81.7,70.4,29.90,West,264,0.0,1.0,68,0.00,,,0.00,WUHU216DAVISVP2,2013-09-11 01:49:00,
2013-09-10 21:54:00,81.8,70.0,29.90,West,270,1.0,1.0,67,0.00,,,0.00,WUHU216DAVISVP2,2013-09-11 01:54:00,
2013-09-10 21:59:00,81.9,70.1,29.90,West,262,1.0,2.0,67,0.00,,,0.00,WUHU216DAVISVP2,2013-09-11 01:59:00,
2013-09-10 22:04:00,81.8,70.0,29.90,West,259,1.0,2.0,67,0.00,,,0.00,WUHU216DAVISVP2,2013-09-11 02:04:00,
2013-09-10 22:09:00,81.7,69.7,29.90,West,259,0.0,2.0,67,0.00,,,0.00,WUHU216DAVISVP2,2013-09-11 02:09:00,
2013-09-10 22:14:00,81.6,70.3,29.90,WSW,252,1.0,1.0,68,0.00,,,0.00,WUHU216DAVISVP2,2013-09-11 02:14:00,
2013-09-10 22:19:00,81.3,70.0,29.90,WSW,253,1.0,1.0,68,0.00,,,0.00,WUHU216DAVISVP2,2013-09-11 02:19:00,
2013-09-10 22:24:00,81.1,69.8,29.90,WSW,252,1.0,1.0,68,0.00,,,0.00,WUHU216DAVISVP2,2013-09-11 02:24:00,
2013-09-10 22:29:00,81.0,69.7,29.90,WSW,253,1.0,1.0,68,0.00,,,0.00,WUHU216DAVISVP2,2013-09-11 02:29:00,
2013-09-10 22:34:00,80.9,69.3,29.90,WSW,256,1.0,1.0,68,0.00,,,0.00,WUHU216DAVISVP2,2013-09-11 02:34:00,
2013-09-10 22:39:00,80.8,69.9,29.90,West,259,1.0,1.0,69,0.00,,,0.00,WUHU216DAVISVP2,2013-09-11 02:39:00,
2013-09-10 22:44:00,80.6,69.7,29.89,West,259,0.0,1.0,69,0.00,,,0.00,WUHU216DAVISVP2,2013-09-11 02:44:00,
2013-09-10 22:49:00,80.5,69.6,29.89,WSW,255,1.0,1.0,69,0.00,,,0.00,WUHU216DAVISVP2,2013-09-11 02:49:00,
2013-09-10 22:54:00,80.3,69.4,29.90,SW,235,1.0,1.0,69,0.00,,,0.00,WUHU216DAVISVP2,2013-09-11 02:54:00,
2013-09-10 22:59:00,80.0,69.6,29.89,WSW,238,0.0,1.0,70,0.00,,,0.00,WUHU216DAVISVP2,2013-09-11 02:59:00,
2013-09-10 23:04:00,79.8,69.4,29.89,WSW,237,1.0,1.0,70,0.00,,,0.00,WUHU216DAVISVP2,2013-09-11 03:04:00,
2013-09-10 23:09:00,79.6,69.2,29.89,SSW,205,0.0,1.0,70,0.00,,,0.00,WUHU216DAVISVP2,2013-09-11 03:09:00,
2013-09-10 23:14:00,79.5,68.7,29.89,SSW,212,1.0,2.0,69,0.00,,,0.00,WUHU216DAVISVP2,2013-09-11 03:14:00,
2013-09-10 23:19:00,79.6,68.8,29.90,SW,231,1.0,3.0,69,0.00,,,0.00,WUHU216DAVISVP2,2013-09-11 03:19:00,
2013-09-10 23:24:00,79.6,68.3,29.89,WSW,255,1.0,3.0,68,0.00,,,0.00,WUHU216DAVISVP2,2013-09-11 03:24:00,
2013-09-10 23:29:00,79.6,67.9,29.89,SW,217,2.0,3.0,67,0.00,,,0.00,WUHU216DAVISVP2,2013-09-11 03:29:00,
2013-09-10 23:34:00,79.7,67.8,29.89,West,269,1.0,3.0,67,0.00,,,0.00,WUHU216DAVISVP2,2013-09-11 03:34:00,
2013-09-10 23:39:00,79.9,67.5,29.89,West,267,2.0,3.0,66,0.00,,,0.00,WUHU216DAVISVP2,2013-09-11 03:39:00,
2013-09-10 23:44:00,80.0,67.4,29.89,WSW,258,1.0,4.0,65,0.00,,,0.00,WUHU216DAVISVP2,2013-09-11 03:44:00,
2013-09-10 23:49:00,80.1,67.5,29.89,SW,226,2.0,5.0,65,0.00,,,0.00,WUHU216DAVISVP2,2013-09-11 03:49:00,
2013-09-10 23:54:00,80.1,67.5,29.89,WSW,253,2.0,5.0,65,0.00,,,0.00,WUHU216DAVISVP2,2013-09-11 03:54:00,
2013-09-10 23:59:00,80.1,67.1,29.89,SW,231,3.0,5.0,64,0.00,,,0.00,WUHU216DAVISVP2,2013-09-11 03:59:00,